Year,Month,Day,Hour,Minute,Value (Times are PST for temperature in C)
2014,03,24,00,00,7.00
2014,03,24,00,01,7.00
2014,03,24,00,02,6.90
2014,03,24,00,03,6.90
2014,03,24,00,04,6.90
2014,03,24,00,05,6.90
2014,03,24,00,06,6.90
2014,03,24,00,07,6.90
2014,03,24,00,08,6.90
2014,03,24,00,09,6.90
2014,03,24,00,10,6.80
2014,03,24,00,11,6.80
2014,03,24,00,12,6.70
2014,03,24,00,13,6.70
2014,03,24,00,14,6.60
2014,03,24,00,15,6.60
2014,03,24,00,16,6.60
2014,03,24,00,17,6.60
2014,03,24,00,18,6.60
2014,03,24,00,19,6.60
2014,03,24,00,20,6.50
2014,03,24,00,21,6.50
2014,03,24,00,22,6.50
2014,03,24,00,23,6.50
2014,03,24,00,24,6.50
2014,03,24,00,25,6.50
2014,03,24,00,26,6.60
2014,03,24,00,27,6.60
2014,03,24,00,28,6.60
2014,03,24,00,29,6.60
2014,03,24,00,30,6.60
2014,03,24,00,31,6.60
2014,03,24,00,32,6.60
2014,03,24,00,33,6.60
2014,03,24,00,34,6.60
2014,03,24,00,35,6.60
2014,03,24,00,36,6.60
2014,03,24,00,37,6.60
2014,03,24,00,38,6.60
2014,03,24,00,39,6.70
2014,03,24,00,40,6.70
2014,03,24,00,41,6.70
2014,03,24,00,42,6.70
2014,03,24,00,43,6.70
2014,03,24,00,44,6.70
2014,03,24,00,45,6.70
2014,03,24,00,46,6.70
2014,03,24,00,47,6.70
2014,03,24,00,48,6.70
2014,03,24,00,49,6.70
2014,03,24,00,50,6.70
2014,03,24,00,51,6.70
2014,03,24,00,52,6.60
2014,03,24,00,53,6.60
2014,03,24,00,54,6.60
2014,03,24,00,55,6.60
2014,03,24,00,56,6.60
2014,03,24,00,57,6.60
2014,03,24,00,58,6.60
2014,03,24,00,59,6.60
2014,03,24,01,00,6.60
2014,03,24,01,01,6.60
2014,03,24,01,02,6.60
2014,03,24,01,03,6.60
2014,03,24,01,04,6.60
2014,03,24,01,05,6.50
2014,03,24,01,06,6.50
2014,03,24,01,07,6.50
2014,03,24,01,08,6.40
2014,03,24,01,09,6.40
2014,03,24,01,10,6.40
2014,03,24,01,11,6.40
2014,03,24,01,12,6.40
2014,03,24,01,13,6.30
2014,03,24,01,14,6.30
2014,03,24,01,15,6.30
2014,03,24,01,16,6.30
2014,03,24,01,17,6.30
2014,03,24,01,18,6.30
2014,03,24,01,19,6.30
2014,03,24,01,20,6.30
2014,03,24,01,21,6.30
2014,03,24,01,22,6.30
2014,03,24,01,23,6.30
2014,03,24,01,24,6.20
2014,03,24,01,25,6.30
2014,03,24,01,26,6.30
2014,03,24,01,27,6.30
2014,03,24,01,28,6.30
2014,03,24,01,29,6.30
2014,03,24,01,30,6.30
2014,03,24,01,31,6.30
2014,03,24,01,32,6.20
2014,03,24,01,33,6.20
2014,03,24,01,34,6.20
2014,03,24,01,35,6.20
2014,03,24,01,36,6.20
2014,03,24,01,37,6.10
2014,03,24,01,38,6.10
2014,03,24,01,39,6.10
2014,03,24,01,40,6.10
2014,03,24,01,41,6.00
2014,03,24,01,42,6.00
2014,03,24,01,43,6.00
2014,03,24,01,44,6.00
2014,03,24,01,45,6.00
2014,03,24,01,46,6.00
2014,03,24,01,47,6.00
2014,03,24,01,48,6.00
2014,03,24,01,49,6.00
2014,03,24,01,50,6.10
2014,03,24,01,51,6.10
2014,03,24,01,52,6.10
2014,03,24,01,53,6.10
2014,03,24,01,54,6.20
2014,03,24,01,55,6.20
2014,03,24,01,56,6.20
2014,03,24,01,57,6.20
2014,03,24,01,58,6.20
2014,03,24,01,59,6.20
2014,03,24,02,00,6.20
2014,03,24,02,01,6.20
2014,03,24,02,02,6.10
2014,03,24,02,03,6.10
2014,03,24,02,04,6.10
2014,03,24,02,05,6.10
2014,03,24,02,06,6.10
2014,03,24,02,07,6.10
2014,03,24,02,08,6.10
2014,03,24,02,09,6.10
2014,03,24,02,10,6.10
2014,03,24,02,11,6.10
2014,03,24,02,12,6.10
2014,03,24,02,13,6.10
2014,03,24,02,14,6.10
2014,03,24,02,15,6.10
2014,03,24,02,16,6.10
2014,03,24,02,17,6.10
2014,03,24,02,18,6.10
2014,03,24,02,19,6.00
2014,03,24,02,20,6.00
2014,03,24,02,21,6.00
2014,03,24,02,22,5.90
2014,03,24,02,23,5.90
2014,03,24,02,24,5.90
2014,03,24,02,25,5.90
2014,03,24,02,26,5.90
2014,03,24,02,27,5.90
2014,03,24,02,28,5.90
2014,03,24,02,29,5.90
2014,03,24,02,30,5.90
2014,03,24,02,31,5.90
2014,03,24,02,32,5.90
2014,03,24,02,33,5.90
2014,03,24,02,34,5.90
2014,03,24,02,35,5.90
2014,03,24,02,36,5.90
2014,03,24,02,37,5.90
2014,03,24,02,38,5.90
2014,03,24,02,39,5.90
2014,03,24,02,40,5.90
2014,03,24,02,41,6.00
2014,03,24,02,42,6.00
2014,03,24,02,43,6.00
2014,03,24,02,44,6.00
2014,03,24,02,45,6.00
2014,03,24,02,46,6.00
2014,03,24,02,47,6.00
2014,03,24,02,48,6.00
2014,03,24,02,49,6.00
2014,03,24,02,50,6.00
2014,03,24,02,51,6.10
2014,03,24,02,52,6.10
2014,03,24,02,53,6.10
2014,03,24,02,54,6.10
2014,03,24,02,55,6.10
2014,03,24,02,56,6.10
2014,03,24,02,57,6.10
2014,03,24,02,58,6.10
2014,03,24,02,59,6.00
2014,03,24,03,00,6.00
2014,03,24,03,01,6.10
2014,03,24,03,02,6.10
2014,03,24,03,03,6.10
2014,03,24,03,04,6.10
2014,03,24,03,05,6.10
2014,03,24,03,06,6.10
2014,03,24,03,07,6.10
2014,03,24,03,08,6.10
2014,03,24,03,09,6.10
2014,03,24,03,10,6.10
2014,03,24,03,11,6.10
2014,03,24,03,12,6.20
2014,03,24,03,13,6.20
2014,03,24,03,14,6.20
2014,03,24,03,15,6.20
2014,03,24,03,16,6.20
2014,03,24,03,17,6.20
2014,03,24,03,18,6.20
2014,03,24,03,19,6.10
2014,03,24,03,20,6.10
2014,03,24,03,21,6.10
2014,03,24,03,22,6.10
2014,03,24,03,23,6.20
2014,03,24,03,24,6.20
2014,03,24,03,25,6.20
2014,03,24,03,26,6.20
2014,03,24,03,27,6.20
2014,03,24,03,28,6.20
2014,03,24,03,29,6.20
2014,03,24,03,30,6.30
2014,03,24,03,31,6.30
2014,03,24,03,32,6.30
2014,03,24,03,33,6.30
2014,03,24,03,34,6.40
2014,03,24,03,35,6.40
2014,03,24,03,36,6.40
2014,03,24,03,37,6.40
2014,03,24,03,38,6.40
2014,03,24,03,39,6.40
2014,03,24,03,40,6.50
2014,03,24,03,41,6.50
2014,03,24,03,42,6.50
2014,03,24,03,43,6.60
2014,03,24,03,44,6.60
2014,03,24,03,45,6.60
2014,03,24,03,46,6.60
2014,03,24,03,47,6.60
2014,03,24,03,48,6.60
2014,03,24,03,49,6.70
2014,03,24,03,50,6.70
2014,03,24,03,51,6.70
2014,03,24,03,52,6.70
2014,03,24,03,53,6.70
2014,03,24,03,54,6.80
2014,03,24,03,55,6.80
2014,03,24,03,56,6.80
2014,03,24,03,57,6.80
2014,03,24,03,58,6.80
2014,03,24,03,59,6.80
2014,03,24,04,00,6.80
2014,03,24,04,01,6.80
2014,03,24,04,02,6.80
2014,03,24,04,03,6.80
2014,03,24,04,04,6.90
2014,03,24,04,05,6.90
2014,03,24,04,06,6.90
2014,03,24,04,07,6.90
2014,03,24,04,08,6.90
2014,03,24,04,09,6.90
2014,03,24,04,10,6.90
2014,03,24,04,11,6.90
2014,03,24,04,12,6.90
2014,03,24,04,13,6.90
2014,03,24,04,14,6.90
2014,03,24,04,15,6.90
2014,03,24,04,16,7.00
2014,03,24,04,17,7.00
2014,03,24,04,18,7.00
2014,03,24,04,19,7.00
2014,03,24,04,20,7.00
2014,03,24,04,21,7.00
2014,03,24,04,22,7.10
2014,03,24,04,23,7.10
2014,03,24,04,24,7.10
2014,03,24,04,25,7.20
2014,03,24,04,26,7.20
2014,03,24,04,27,7.20
2014,03,24,04,28,7.20
2014,03,24,04,29,7.20
2014,03,24,04,30,7.20
2014,03,24,04,31,7.30
2014,03,24,04,32,7.30
2014,03,24,04,33,7.30
2014,03,24,04,34,7.30
2014,03,24,04,35,7.30
2014,03,24,04,36,7.40
2014,03,24,04,37,7.40
2014,03,24,04,38,7.40
2014,03,24,04,39,7.40
2014,03,24,04,40,7.40
2014,03,24,04,41,7.40
2014,03,24,04,42,7.40
2014,03,24,04,43,7.40
2014,03,24,04,44,7.50
2014,03,24,04,45,7.40
2014,03,24,04,46,7.40
2014,03,24,04,47,7.40
2014,03,24,04,48,7.40
2014,03,24,04,49,7.40
2014,03,24,04,50,7.40
2014,03,24,04,51,7.40
2014,03,24,04,52,7.40
2014,03,24,04,53,7.40
2014,03,24,04,54,7.40
2014,03,24,04,55,7.30
2014,03,24,04,56,7.30
2014,03,24,04,57,7.30
2014,03,24,04,58,7.20
2014,03,24,04,59,7.20
2014,03,24,05,00,7.20
2014,03,24,05,01,7.20
2014,03,24,05,02,7.10
2014,03,24,05,03,7.10
2014,03,24,05,04,7.10
2014,03,24,05,05,7.10
2014,03,24,05,06,7.10
2014,03,24,05,07,7.10
2014,03,24,05,08,7.10
2014,03,24,05,09,7.10
2014,03,24,05,10,7.10
2014,03,24,05,11,7.10
2014,03,24,05,12,7.10
2014,03,24,05,13,7.10
2014,03,24,05,14,7.10
2014,03,24,05,15,7.10
2014,03,24,05,16,7.10
2014,03,24,05,17,7.10
2014,03,24,05,18,7.10
2014,03,24,05,19,7.10
2014,03,24,05,20,7.10
2014,03,24,05,21,7.10
2014,03,24,05,22,7.00
2014,03,24,05,23,6.90
2014,03,24,05,24,6.90
2014,03,24,05,25,6.90
2014,03,24,05,26,6.90
2014,03,24,05,27,6.80
2014,03,24,05,28,6.80
2014,03,24,05,29,6.80
2014,03,24,05,30,6.80
2014,03,24,05,31,6.80
2014,03,24,05,32,6.70
2014,03,24,05,33,6.70
2014,03,24,05,34,6.70
2014,03,24,05,35,6.70
2014,03,24,05,36,6.60
2014,03,24,05,37,6.60
2014,03,24,05,38,6.60
2014,03,24,05,39,6.60
2014,03,24,05,40,6.60
2014,03,24,05,41,6.50
2014,03,24,05,42,6.50
2014,03,24,05,43,6.50
2014,03,24,05,44,6.40
2014,03,24,05,45,6.40
2014,03,24,05,46,6.30
2014,03,24,05,47,6.30
2014,03,24,05,48,6.20
2014,03,24,05,49,6.20
2014,03,24,05,50,6.10
2014,03,24,05,51,6.10
2014,03,24,05,52,6.10
2014,03,24,05,53,6.00
2014,03,24,05,54,5.90
2014,03,24,05,55,5.90
2014,03,24,05,56,5.80
2014,03,24,05,57,5.80
2014,03,24,05,58,5.80
2014,03,24,05,59,5.70
2014,03,24,06,00,5.60
2014,03,24,06,01,5.60
2014,03,24,06,02,5.60
2014,03,24,06,03,5.60
2014,03,24,06,04,5.50
2014,03,24,06,05,5.50
2014,03,24,06,06,5.50
2014,03,24,06,07,5.60
2014,03,24,06,08,5.60
2014,03,24,06,09,5.60
2014,03,24,06,10,5.70
2014,03,24,06,11,5.70
2014,03,24,06,12,5.80
2014,03,24,06,13,5.80
2014,03,24,06,14,5.90
2014,03,24,06,15,6.10
2014,03,24,06,16,6.20
2014,03,24,06,17,6.20
2014,03,24,06,18,6.30
2014,03,24,06,19,6.40
2014,03,24,06,20,6.40
2014,03,24,06,21,6.50
2014,03,24,06,22,6.50
2014,03,24,06,23,6.60
2014,03,24,06,24,6.60
2014,03,24,06,25,6.60
2014,03,24,06,26,6.70
2014,03,24,06,27,6.70
2014,03,24,06,28,6.70
2014,03,24,06,29,6.70
2014,03,24,06,30,6.70
2014,03,24,06,31,6.70
2014,03,24,06,32,6.70
2014,03,24,06,33,6.80
2014,03,24,06,34,6.80
2014,03,24,06,35,6.80
2014,03,24,06,36,6.80
2014,03,24,06,37,6.80
2014,03,24,06,38,6.80
2014,03,24,06,39,6.80
2014,03,24,06,40,6.80
2014,03,24,06,41,6.80
2014,03,24,06,42,6.80
2014,03,24,06,43,6.80
2014,03,24,06,44,6.80
2014,03,24,06,45,6.80
2014,03,24,06,46,6.80
2014,03,24,06,47,6.80
2014,03,24,06,48,6.80
2014,03,24,06,49,6.80
2014,03,24,06,50,6.80
2014,03,24,06,51,6.70
2014,03,24,06,52,6.70
2014,03,24,06,53,6.70
2014,03,24,06,54,6.70
2014,03,24,06,55,6.70
2014,03,24,06,56,6.60
2014,03,24,06,57,6.60
2014,03,24,06,58,6.60
2014,03,24,06,59,6.60
2014,03,24,07,00,6.50
2014,03,24,07,01,6.50
2014,03,24,07,02,6.40
2014,03,24,07,03,6.40
2014,03,24,07,04,6.40
2014,03,24,07,05,6.40
2014,03,24,07,06,6.40
2014,03,24,07,07,6.40
2014,03,24,07,08,6.40
2014,03,24,07,09,6.40
2014,03,24,07,10,6.40
2014,03,24,07,11,6.40
2014,03,24,07,12,6.40
2014,03,24,07,13,6.40
2014,03,24,07,14,6.40
2014,03,24,07,15,6.40
2014,03,24,07,16,6.40
2014,03,24,07,17,6.40
2014,03,24,07,18,6.30
2014,03,24,07,19,6.40
2014,03,24,07,20,6.40
2014,03,24,07,21,6.40
2014,03,24,07,22,6.40
2014,03,24,07,23,6.40
2014,03,24,07,24,6.40
2014,03,24,07,25,6.40
2014,03,24,07,26,6.40
2014,03,24,07,27,6.30
2014,03,24,07,28,6.30
2014,03,24,07,29,6.30
2014,03,24,07,30,6.30
2014,03,24,07,31,6.30
2014,03,24,07,32,6.30
2014,03,24,07,33,6.30
2014,03,24,07,34,6.30
2014,03,24,07,35,6.30
2014,03,24,07,36,6.30
2014,03,24,07,37,6.30
2014,03,24,07,38,6.30
2014,03,24,07,39,6.30
2014,03,24,07,40,6.30
2014,03,24,07,41,6.30
2014,03,24,07,42,6.30
2014,03,24,07,43,6.30
2014,03,24,07,44,6.40
2014,03,24,07,45,6.40
2014,03,24,07,46,6.40
2014,03,24,07,47,6.40
2014,03,24,07,48,6.40
2014,03,24,07,49,6.40
2014,03,24,07,50,6.50
2014,03,24,07,51,6.50
2014,03,24,07,52,6.60
2014,03,24,07,53,6.60
2014,03,24,07,54,6.60
2014,03,24,07,55,6.60
2014,03,24,07,56,6.70
2014,03,24,07,57,6.70
2014,03,24,07,58,6.70
2014,03,24,07,59,6.70
2014,03,24,08,00,6.70
2014,03,24,08,01,6.80
2014,03,24,08,02,6.80
2014,03,24,08,03,6.80
2014,03,24,08,04,6.80
2014,03,24,08,05,6.90
2014,03,24,08,06,6.90
2014,03,24,08,07,6.90
2014,03,24,08,08,6.90
2014,03,24,08,09,7.00
2014,03,24,08,10,7.00
2014,03,24,08,11,7.00
2014,03,24,08,12,7.00
2014,03,24,08,13,7.00
2014,03,24,08,14,7.10
2014,03,24,08,15,7.10
2014,03,24,08,16,7.10
2014,03,24,08,17,7.10
2014,03,24,08,18,7.10
2014,03,24,08,19,7.20
2014,03,24,08,20,7.20
2014,03,24,08,21,7.20
2014,03,24,08,22,7.20
2014,03,24,08,23,7.30
2014,03,24,08,24,7.30
2014,03,24,08,25,7.30
2014,03,24,08,26,7.30
2014,03,24,08,27,7.30
2014,03,24,08,28,7.30
2014,03,24,08,29,7.30
2014,03,24,08,30,7.40
2014,03,24,08,31,7.40
2014,03,24,08,32,7.40
2014,03,24,08,33,7.40
2014,03,24,08,34,7.40
2014,03,24,08,35,7.40
2014,03,24,08,36,7.50
2014,03,24,08,37,7.50
2014,03,24,08,38,7.50
2014,03,24,08,39,7.50
2014,03,24,08,40,7.50
2014,03,24,08,41,7.50
2014,03,24,08,42,7.60
2014,03,24,08,43,7.60
2014,03,24,08,44,7.60
2014,03,24,08,45,7.70
2014,03,24,08,46,7.80
2014,03,24,08,47,7.80
2014,03,24,08,48,7.80
2014,03,24,08,49,7.80
2014,03,24,08,50,7.90
2014,03,24,08,51,7.90
2014,03,24,08,52,8.00
2014,03,24,08,53,8.00
2014,03,24,08,54,8.10
2014,03,24,08,55,8.10
2014,03,24,08,56,8.10
2014,03,24,08,57,8.20
2014,03,24,08,58,8.20
2014,03,24,08,59,8.20
2014,03,24,09,00,8.20
2014,03,24,09,01,8.30
2014,03,24,09,02,8.30
2014,03,24,09,03,8.30
2014,03,24,09,04,8.40
2014,03,24,09,05,8.40
2014,03,24,09,06,8.50
2014,03,24,09,07,8.50
2014,03,24,09,08,8.60
2014,03,24,09,09,8.60
2014,03,24,09,10,8.60
2014,03,24,09,11,8.70
2014,03,24,09,12,8.70
2014,03,24,09,13,8.70
2014,03,24,09,14,8.70
2014,03,24,09,15,8.70
2014,03,24,09,16,8.80
2014,03,24,09,17,8.80
2014,03,24,09,18,8.80
2014,03,24,09,19,8.80
2014,03,24,09,20,8.80
2014,03,24,09,21,8.80
2014,03,24,09,22,8.90
2014,03,24,09,23,8.90
2014,03,24,09,24,8.90
2014,03,24,09,25,8.90
2014,03,24,09,26,9.00
2014,03,24,09,27,9.00
2014,03,24,09,28,9.10
2014,03,24,09,29,9.10
2014,03,24,09,30,9.20
2014,03,24,09,31,9.20
2014,03,24,09,32,9.30
2014,03,24,09,33,9.30
2014,03,24,09,34,9.40
2014,03,24,09,35,9.40
2014,03,24,09,36,9.50
2014,03,24,09,37,9.50
2014,03,24,09,38,9.60
2014,03,24,09,39,9.60
2014,03,24,09,40,9.60
2014,03,24,09,41,9.70
2014,03,24,09,42,9.70
2014,03,24,09,43,9.70
2014,03,24,09,44,9.70
2014,03,24,09,45,9.70
2014,03,24,09,46,9.80
2014,03,24,09,47,9.80
2014,03,24,09,48,9.80
2014,03,24,09,49,9.80
2014,03,24,09,50,9.80
2014,03,24,09,51,9.80
2014,03,24,09,52,9.90
2014,03,24,09,53,9.90
2014,03,24,09,54,9.90
2014,03,24,09,55,9.90
2014,03,24,09,56,10.00
2014,03,24,09,57,10.00
2014,03,24,09,58,10.10
2014,03,24,09,59,10.10
2014,03,24,10,00,10.20
2014,03,24,10,01,10.20
2014,03,24,10,02,10.30
2014,03,24,10,03,10.40
2014,03,24,10,04,10.40
2014,03,24,10,05,10.50
2014,03,24,10,06,10.50
2014,03,24,10,07,10.60
2014,03,24,10,08,10.60
2014,03,24,10,09,10.70
2014,03,24,10,10,10.70
2014,03,24,10,11,10.80
2014,03,24,10,12,10.80
2014,03,24,10,13,10.80
2014,03,24,10,14,10.80
2014,03,24,10,15,10.90
2014,03,24,10,16,10.90
2014,03,24,10,17,10.90
2014,03,24,10,18,10.90
2014,03,24,10,19,10.90
2014,03,24,10,20,10.90
2014,03,24,10,21,10.90
2014,03,24,10,22,11.00
2014,03,24,10,23,11.00
2014,03,24,10,24,11.00
2014,03,24,10,25,11.10
2014,03,24,10,26,11.10
2014,03,24,10,27,11.10
2014,03,24,10,28,11.10
2014,03,24,10,29,11.10
2014,03,24,10,30,11.10
2014,03,24,10,31,11.10
2014,03,24,10,32,11.00
2014,03,24,10,33,11.10
2014,03,24,10,34,11.10
2014,03,24,10,35,11.10
2014,03,24,10,36,11.10
2014,03,24,10,37,11.10
2014,03,24,10,38,11.10
2014,03,24,10,39,11.20
2014,03,24,10,40,11.20
2014,03,24,10,41,11.20
2014,03,24,10,42,11.30
2014,03,24,10,43,11.30
2014,03,24,10,44,11.40
2014,03,24,10,45,11.40
2014,03,24,10,46,11.50
2014,03,24,10,47,11.50
2014,03,24,10,48,11.50
2014,03,24,10,49,11.60
2014,03,24,10,50,11.60
2014,03,24,10,51,11.70
2014,03,24,10,52,11.80
2014,03,24,10,53,11.80
2014,03,24,10,54,11.90
2014,03,24,10,55,12.00
2014,03,24,10,56,12.00
2014,03,24,10,57,12.10
2014,03,24,10,58,12.20
2014,03,24,10,59,12.20
2014,03,24,11,00,12.20
2014,03,24,11,01,12.30
2014,03,24,11,02,12.30
2014,03,24,11,03,12.40
2014,03,24,11,04,12.40
2014,03,24,11,05,12.40
2014,03,24,11,06,12.50
2014,03,24,11,07,12.60
2014,03,24,11,08,12.60
2014,03,24,11,09,12.70
2014,03,24,11,10,12.80
2014,03,24,11,11,12.80
2014,03,24,11,12,12.90
2014,03,24,11,13,12.90
2014,03,24,11,14,13.00
2014,03,24,11,15,13.10
2014,03,24,11,16,13.10
2014,03,24,11,17,13.20
2014,03,24,11,18,13.20
2014,03,24,11,19,13.20
2014,03,24,11,20,13.20
2014,03,24,11,21,13.30
2014,03,24,11,22,13.30
2014,03,24,11,23,13.30
2014,03,24,11,24,13.40
2014,03,24,11,25,13.40
2014,03,24,11,26,13.40
2014,03,24,11,27,13.40
2014,03,24,11,28,13.50
2014,03,24,11,29,13.50
2014,03,24,11,30,13.60
2014,03,24,11,31,13.60
2014,03,24,11,32,13.70
2014,03,24,11,33,13.70
2014,03,24,11,34,13.70
2014,03,24,11,35,13.70
2014,03,24,11,36,13.80
2014,03,24,11,37,13.80
2014,03,24,11,38,13.90
2014,03,24,11,39,13.80
2014,03,24,11,40,13.80
2014,03,24,11,41,13.90
2014,03,24,11,42,13.90
2014,03,24,11,43,13.90
2014,03,24,11,44,14.00
2014,03,24,11,45,14.00
2014,03,24,11,46,14.00
2014,03,24,11,47,14.00
2014,03,24,11,48,13.90
2014,03,24,11,49,13.90
2014,03,24,11,50,13.90
2014,03,24,11,51,13.90
2014,03,24,11,52,13.90
2014,03,24,11,53,14.00
2014,03,24,11,54,14.00
2014,03,24,11,55,14.00
2014,03,24,11,56,14.00
2014,03,24,11,57,14.00
2014,03,24,11,58,14.00
2014,03,24,11,59,13.90
2014,03,24,12,00,13.90
2014,03,24,12,01,13.90
2014,03,24,12,02,13.90
2014,03,24,12,03,14.00
2014,03,24,12,04,14.00
2014,03,24,12,05,14.00
2014,03,24,12,06,14.10
2014,03,24,12,07,14.10
2014,03,24,12,08,14.10
2014,03,24,12,09,14.10
2014,03,24,12,10,14.20
2014,03,24,12,11,14.20
2014,03,24,12,12,14.20
2014,03,24,12,13,14.20
2014,03,24,12,14,14.20
2014,03,24,12,15,14.20
2014,03,24,12,16,14.30
2014,03,24,12,17,14.30
2014,03,24,12,18,14.30
2014,03,24,12,19,14.30
2014,03,24,12,20,14.30
2014,03,24,12,21,14.30
2014,03,24,12,22,14.40
2014,03,24,12,23,14.40
2014,03,24,12,24,14.40
2014,03,24,12,25,14.40
2014,03,24,12,26,14.50
2014,03,24,12,27,14.60
2014,03,24,12,28,14.60
2014,03,24,12,29,14.60
2014,03,24,12,30,14.70
2014,03,24,12,31,14.70
2014,03,24,12,32,14.70
2014,03,24,12,33,14.70
2014,03,24,12,34,14.80
2014,03,24,12,35,14.80
2014,03,24,12,36,14.80
2014,03,24,12,37,14.80
2014,03,24,12,38,14.80
2014,03,24,12,39,14.80
2014,03,24,12,40,14.80
2014,03,24,12,41,14.90
2014,03,24,12,42,14.90
2014,03,24,12,43,14.90
2014,03,24,12,44,14.90
2014,03,24,12,45,14.90
2014,03,24,12,46,14.90
2014,03,24,12,47,14.90
2014,03,24,12,48,14.90
2014,03,24,12,49,15.00
2014,03,24,12,50,15.00
2014,03,24,12,51,15.10
2014,03,24,12,52,15.10
2014,03,24,12,53,15.10
2014,03,24,12,54,15.10
2014,03,24,12,55,15.20
2014,03,24,12,56,15.20
2014,03,24,12,57,15.30
2014,03,24,12,58,15.30
2014,03,24,12,59,15.30
2014,03,24,13,00,15.40
2014,03,24,13,01,15.40
2014,03,24,13,02,15.40
2014,03,24,13,03,15.40
2014,03,24,13,04,15.40
2014,03,24,13,05,15.40
2014,03,24,13,06,15.40
2014,03,24,13,07,15.40
2014,03,24,13,08,15.40
2014,03,24,13,09,15.40
2014,03,24,13,10,15.50
2014,03,24,13,11,15.50
2014,03,24,13,12,15.50
2014,03,24,13,13,15.60
2014,03,24,13,14,15.60
2014,03,24,13,15,15.60
2014,03,24,13,16,15.60
2014,03,24,13,17,15.60
2014,03,24,13,18,15.60
2014,03,24,13,19,15.60
2014,03,24,13,20,15.60
2014,03,24,13,21,15.60
2014,03,24,13,22,15.50
2014,03,24,13,23,15.50
2014,03,24,13,24,15.60
2014,03,24,13,25,15.60
2014,03,24,13,26,15.60
2014,03,24,13,27,15.60
2014,03,24,13,28,15.70
2014,03,24,13,29,15.70
2014,03,24,13,30,15.70
2014,03,24,13,31,15.70
2014,03,24,13,32,15.70
2014,03,24,13,33,15.80
2014,03,24,13,34,15.80
2014,03,24,13,35,15.90
2014,03,24,13,36,15.90
2014,03,24,13,37,16.00
2014,03,24,13,38,16.00
2014,03,24,13,39,16.10
2014,03,24,13,40,16.10
2014,03,24,13,41,16.10
2014,03,24,13,42,16.10
2014,03,24,13,43,16.20
2014,03,24,13,44,16.20
2014,03,24,13,45,16.20
2014,03,24,13,46,16.10
2014,03,24,13,47,16.10
2014,03,24,13,48,16.00
2014,03,24,13,49,16.00
2014,03,24,13,50,16.00
2014,03,24,13,51,16.00
2014,03,24,13,52,16.00
2014,03,24,13,53,16.00
2014,03,24,13,54,16.00
2014,03,24,13,55,16.00
2014,03,24,13,56,16.10
2014,03,24,13,57,16.10
2014,03,24,13,58,16.10
2014,03,24,13,59,16.20
2014,03,24,14,00,16.30
2014,03,24,14,01,16.30
2014,03,24,14,02,16.30
2014,03,24,14,03,16.40
2014,03,24,14,04,16.40
2014,03,24,14,05,16.50
2014,03,24,14,06,16.60
2014,03,24,14,07,16.60
2014,03,24,14,08,16.60
2014,03,24,14,09,16.60
2014,03,24,14,10,16.60
2014,03,24,14,11,16.70
2014,03,24,14,12,16.70
2014,03,24,14,13,16.70
2014,03,24,14,14,16.80
2014,03,24,14,15,16.80
2014,03,24,14,16,16.80
2014,03,24,14,17,16.80
2014,03,24,14,18,16.80
2014,03,24,14,19,16.80
2014,03,24,14,20,16.80
2014,03,24,14,21,16.90
2014,03,24,14,22,16.90
2014,03,24,14,23,16.90
2014,03,24,14,24,16.90
2014,03,24,14,25,16.90
2014,03,24,14,26,16.90
2014,03,24,14,27,16.90
2014,03,24,14,28,16.90
2014,03,24,14,29,16.90
2014,03,24,14,30,16.90
2014,03,24,14,31,16.90
2014,03,24,14,32,16.90
2014,03,24,14,33,16.90
2014,03,24,14,34,16.90
2014,03,24,14,35,16.90
2014,03,24,14,36,16.90
2014,03,24,14,37,16.90
2014,03,24,14,38,16.90
2014,03,24,14,39,17.00
2014,03,24,14,40,17.00
2014,03,24,14,41,17.10
2014,03,24,14,42,17.10
2014,03,24,14,43,17.20
2014,03,24,14,44,17.20
2014,03,24,14,45,17.20
2014,03,24,14,46,17.20
2014,03,24,14,47,17.20
2014,03,24,14,48,17.30
2014,03,24,14,49,17.30
2014,03,24,14,50,17.40
2014,03,24,14,51,17.40
2014,03,24,14,52,17.40
2014,03,24,14,53,17.50
2014,03,24,14,54,17.50
2014,03,24,14,55,17.50
2014,03,24,14,56,17.50
2014,03,24,14,57,17.50
2014,03,24,14,58,17.40
2014,03,24,14,59,17.40
2014,03,24,15,00,17.30
2014,03,24,15,01,17.30
2014,03,24,15,02,17.30
2014,03,24,15,03,17.20
2014,03,24,15,04,17.20
2014,03,24,15,05,17.20
2014,03,24,15,06,17.20
2014,03,24,15,07,17.20
2014,03,24,15,08,17.20
2014,03,24,15,09,17.10
2014,03,24,15,10,17.10
2014,03,24,15,11,17.00
2014,03,24,15,12,17.00
2014,03,24,15,13,16.90
2014,03,24,15,14,16.80
2014,03,24,15,15,16.70
2014,03,24,15,16,16.60
2014,03,24,15,17,16.50
2014,03,24,15,18,16.50
2014,03,24,15,19,16.50
2014,03,24,15,20,16.40
2014,03,24,15,21,16.40
2014,03,24,15,22,16.30
2014,03,24,15,23,16.20
2014,03,24,15,24,16.20
2014,03,24,15,25,16.10
2014,03,24,15,26,16.10
2014,03,24,15,27,16.10
2014,03,24,15,28,16.00
2014,03,24,15,29,15.90
2014,03,24,15,30,15.90
2014,03,24,15,31,15.90
2014,03,24,15,32,15.90
2014,03,24,15,33,15.90
2014,03,24,15,34,15.80
2014,03,24,15,35,15.80
2014,03,24,15,36,15.80
2014,03,24,15,37,15.80
2014,03,24,15,38,15.80
2014,03,24,15,39,15.70
2014,03,24,15,40,15.70
2014,03,24,15,41,15.70
2014,03,24,15,42,15.60
2014,03,24,15,43,15.60
2014,03,24,15,44,15.50
2014,03,24,15,45,15.40
2014,03,24,15,46,15.40
2014,03,24,15,47,15.30
2014,03,24,15,48,15.30
2014,03,24,15,49,15.30
2014,03,24,15,50,15.30
2014,03,24,15,51,15.30
2014,03,24,15,52,15.20
2014,03,24,15,53,15.20
2014,03,24,15,54,15.20
2014,03,24,15,55,15.10
2014,03,24,15,56,14.90
2014,03,24,15,57,14.80
2014,03,24,15,58,14.70
2014,03,24,15,59,14.60
2014,03,24,16,00,14.40
2014,03,24,16,01,14.30
2014,03,24,16,02,14.20
2014,03,24,16,03,14.10
2014,03,24,16,04,14.10
2014,03,24,16,05,14.00
2014,03,24,16,06,14.00
2014,03,24,16,07,14.00
2014,03,24,16,08,14.00
2014,03,24,16,09,13.90
2014,03,24,16,10,13.90
2014,03,24,16,11,13.90
2014,03,24,16,12,13.90
2014,03,24,16,13,13.80
2014,03,24,16,14,13.80
2014,03,24,16,15,13.80
2014,03,24,16,16,13.70
2014,03,24,16,17,13.70
2014,03,24,16,18,13.70
2014,03,24,16,19,13.70
2014,03,24,16,20,13.70
2014,03,24,16,21,13.70
2014,03,24,16,22,13.70
2014,03,24,16,23,13.70
2014,03,24,16,24,13.80
2014,03,24,16,25,13.80
2014,03,24,16,26,13.80
2014,03,24,16,27,13.80
2014,03,24,16,28,13.90
2014,03,24,16,29,13.90
2014,03,24,16,30,13.90
2014,03,24,16,31,13.90
2014,03,24,16,32,14.00
2014,03,24,16,33,14.00
2014,03,24,16,34,14.00
2014,03,24,16,35,14.10
2014,03,24,16,36,14.10
2014,03,24,16,37,14.20
2014,03,24,16,38,14.20
2014,03,24,16,39,14.20
2014,03,24,16,40,14.20
2014,03,24,16,41,14.20
2014,03,24,16,42,14.20
2014,03,24,16,43,14.20
2014,03,24,16,44,14.10
2014,03,24,16,45,14.10
2014,03,24,16,46,14.00
2014,03,24,16,47,14.00
2014,03,24,16,48,13.90
2014,03,24,16,49,13.90
2014,03,24,16,50,13.90
2014,03,24,16,51,13.90
2014,03,24,16,52,13.90
2014,03,24,16,53,13.90
2014,03,24,16,54,13.90
2014,03,24,16,55,13.90
2014,03,24,16,56,13.90
2014,03,24,16,57,13.90
2014,03,24,16,58,13.90
2014,03,24,16,59,13.90
2014,03,24,17,00,13.90
2014,03,24,17,01,13.90
2014,03,24,17,02,13.90
2014,03,24,17,03,13.90
2014,03,24,17,04,13.90
2014,03,24,17,05,13.90
2014,03,24,17,06,13.90
2014,03,24,17,07,13.90
2014,03,24,17,08,13.90
2014,03,24,17,09,13.90
2014,03,24,17,10,13.90
2014,03,24,17,11,13.90
2014,03,24,17,12,13.90
2014,03,24,17,13,13.80
2014,03,24,17,14,13.80
2014,03,24,17,15,13.80
2014,03,24,17,16,13.80
2014,03,24,17,17,13.80
2014,03,24,17,18,13.80
2014,03,24,17,19,13.80
2014,03,24,17,20,13.80
2014,03,24,17,21,13.80
2014,03,24,17,22,13.80
2014,03,24,17,23,13.80
2014,03,24,17,24,13.80
2014,03,24,17,25,13.80
2014,03,24,17,26,13.80
2014,03,24,17,27,13.80
2014,03,24,17,28,13.80
2014,03,24,17,29,13.80
2014,03,24,17,30,13.80
2014,03,24,17,31,13.80
2014,03,24,17,32,13.80
2014,03,24,17,33,13.80
2014,03,24,17,34,13.80
2014,03,24,17,35,13.80
2014,03,24,17,36,13.80
2014,03,24,17,37,13.80
2014,03,24,17,38,13.80
2014,03,24,17,39,13.80
2014,03,24,17,40,13.80
2014,03,24,17,41,13.80
2014,03,24,17,42,13.80
2014,03,24,17,43,13.80
2014,03,24,17,44,13.80
2014,03,24,17,45,13.80